Location: Goettingen
(51.5300°N, 9.9433°E)
Time: 22:30:19
(UTC+02:00)

ISS - Pass Details

Date: 12 September 2019
Orbit: 411 x 421 km, 51.6° (Epoch: 19 September)

Event Time Altitude Azimuth Distance (km) Brightness Sun altitude
Exits shadow 04:43:37 63° 175° (S) 469 -3.8 -19.0°
Drops below altitude 10° 04:46:45 10° 116° (ESE) 1,490 -0.6 -18.6°
Sets 04:48:51 0° 113° (ESE) 2,354 0.5 -18.3°
